[[{"header":{"parameterUnit":"m.s-1","parameterCategory":1,"la1":30.2991,"la2":30.254,"lo1":-89.0895,"lo2":-89.0444,"dy":0.0017,"dx":0.0017,"nx":28,"ny":28,"refTime":"2023-10-17T03:00:00:Z","depth":0,"parameterNumber":2,"parameterNumberName":"U-component_of_WINDS"},"data":[0,0,0,0,0,0,0,0,0,0,0,0,0,0,0,0,0,0,0,0,0,0,0,0,0,0,0,0,0,0,0,0,0,0,0,0,0,0,0,0,0,0,0,0,0,0,0,0,0,0,0,0,0,0,0,0,0,0,-1.2572,-1.2572,0,-1.2542,-1.2542,-1.2542,-1.2511,-1.251,-1.251,-1.251,-1.248,-1.248,-1.2479,0,0,0,0,0,0,0,0,0,0,0,0,0,-1.2603,-1.2603,-1.2572,-1.2572,-1.2571,-1.2542,-1.2542,-1.2542,-1.2511,-1.251,-1.251,-1.2509,-1.248,-1.248,-1.2479,0,0,0,0,0,0,0,0,0,0,0,0,0,-1.2583,-1.2603,-1.2572,-1.2553,-1.255,-1.2542,-1.2542,-1.2541,-1.2511,-1.251,-1.251,-1.2509,-1.248,-1.248,-1.2479,-1.2488,0,0,-1.2477,-1.2477,0,0,0,0,0,0,0,0,-1.2585,-1.2582,-1.2556,-1.2554,-1.2552,-1.253,-1.2542,-1.2524,-1.2511,-1.2526,-1.251,-1.2509,-1.2497,-1.2495,-1.2491,-1.2487,-1.2485,-1.2477,-1.2477,-1.2477,-1.2476,0,0,0,0,0,0,0,-1.2586,-1.2583,-1.256,-1.2555,-1.2553,-1.2546,-1.2542,-1.2538,-1.2515,-1.2525,-1.2522,-1.2519,-1.2496,-1.2491,-1.249,-1.2485,-1.2477,-1.2477,-1.2476,-1.2476,-1.2487,-1.2488,0,0,0,0,0,0,-1.259,-1.2585,-1.2561,-1.2559,-1.2567,-1.2546,-1.2542,-1.2537,-1.2515,-1.2511,-1.252,-1.2518,-1.2493,-1.2491,-1.2489,-1.2498,-1.2477,-1.2476,-1.2476,-1.2487,-1.2487,-1.2488,0,0,0,0,0,0,-1.2591,-1.2588,-1.2562,-1.2571,-1.2568,-1.2546,-1.2541,-1.2537,-1.2533,-1.2512,-1.2508,-1.252,-1.2492,-1.249,-1.2488,-1.2496,-1.2476,-1.2475,-1.2486,-1.2487,-1.2488,-1.2516,0,0,0,0,0,0,-1.2592,-1.2589,-1.2592,-1.2572,-1.2567,-1.2562,-1.2542,-1.2537,-1.2532,-1.2529,-1.251,-1.2507,-1.2492,-1.249,-1.2488,-1.2495,-1.2475,-1.2485,-1.2486,-1.2487,-1.2514,-1.2518,-1.2521,0,0,0,0,0,-1.2593,-1.2601,-1.2592,-1.2589,-1.257,-1.2563,-1.256,-1.2542,-1.2532,-1.2535,-1.2522,-1.2507,-1.2496,-1.249,-1.2488,-1.2495,-1.2484,-1.2486,-1.2487,-1.2513,-1.2517,-1.2521,0,0,0,0,0,0,-1.2623,-1.2598,-1.2588,-1.2589,-1.2579,-1.2558,-1.2561,-1.2548,-1.2539,-1.2537,-1.2516,-1.2512,-1.2513,-1.2504,-1.2497,-1.2503,-1.2488,-1.2489,-1.2508,-1.2512,-1.2516,-1.2518,-1.2474,0,0,0,0,0,-1.263,-1.2625,-1.2604,-1.2608,-1.2603,-1.2583,-1.2579,-1.2566,-1.2554,-1.2549,-1.2536,-1.2525,-1.2519,-1.2515,-1.2508,-1.2513,-1.2509,-1.2517,-1.2521,-1.2524,-1.2525,-1.2527,-1.253,-1.2493,-1.2493,-1.2493,0,0,-1.2644,-1.263,-1.2628,-1.2613,-1.2603,-1.26,-1.2579,-1.2576,-1.2573,-1.2549,-1.2547,-1.2537,-1.2523,-1.2525,-1.2525,-1.2517,-1.2534,-1.2525,-1.2528,-1.2527,-1.2528,-1.2532,-1.2535,-1.2494,-1.2494,-1.2494,0,0,-1.2667,-1.2656,-1.2657,-1.2648,-1.2633,-1.262,-1.262,-1.2601,-1.2594,-1.2591,-1.2573,-1.257,-1.256,-1.2551,-1.2545,-1.2566,-1.2552,-1.2564,-1.2581,-1.2583,-1.2586,-1.2589,-1.2596,-1.2599,-1.2565,-1.2565,-1.2566,0,-1.2686,-1.2679,-1.266,-1.2658,-1.2652,-1.263,-1.2631,-1.2623,-1.2607,-1.2604,-1.2595,-1.2582,-1.2572,-1.2571,-1.2576,-1.2573,-1.2573,-1.2566,-1.2587,-1.259,-1.2592,-1.2598,-1.2601,-1.2567,-1.2567,-1.2567,-1.2567,0,-1.2703,-1.2699,-1.2702,-1.2687,-1.2681,-1.2681,-1.2662,-1.2659,-1.2647,-1.2635,-1.2633,-1.262,-1.261,-1.2609,-1.2598,-1.2607,-1.2603,-1.2591,-1.2576,-1.2597,-1.2603,-1.2605,-1.2569,-1.2569,-1.2568,-1.2568,0,0,-1.2744,-1.2718,-1.2719,-1.2712,-1.2694,-1.2691,-1.269,-1.268,-1.2678,-1.2668,-1.2667,-1.2659,-1.2648,-1.2642,-1.2629,-1.2631,-1.2648,-1.2619,-1.2618,-1.2625,-1.2658,-1.2666,-1.2669,-1.2639,-1.264,-1.264,-1.2659,0,-1.2763,-1.276,-1.2743,-1.2744,-1.274,-1.272,-1.2719,-1.2708,-1.2697,-1.2692,-1.268,-1.2675,-1.2661,-1.2657,-1.2658,-1.2646,-1.2654,-1.2644,-1.2638,-1.2638,-1.2641,-1.2672,-1.2681,-1.27,-1.2661,-1.2661,-1.2662,0,-1.2786,-1.2777,-1.2778,-1.276,-1.2758,-1.2757,-1.2747,-1.2743,-1.273,-1.2722,-1.2715,-1.2701,-1.2699,-1.2686,-1.2683,-1.2677,-1.2674,-1.2667,-1.2667,-1.2665,-1.2651,-1.2671,-1.2705,-1.2708,-1.2665,-1.2665,-1.2665,0,-1.2815,-1.2803,-1.2802,-1.2797,-1.2776,-1.2776,-1.2768,-1.2755,-1.275,-1.2741,-1.2738,-1.273,-1.2725,-1.2719,-1.2703,-1.2694,-1.2702,-1.2687,-1.2695,-1.2696,-1.2697,-1.2697,-1.2731,-1.2696,-1.2696,-1.2696,-1.2696,0,-1.2838,-1.284,-1.2815,-1.2814,-1.2815,-1.2796,-1.2798,-1.2787,-1.2776,-1.2773,-1.2756,-1.2754,-1.2733,-1.2729,-1.2716,-1.2716,-1.2714,-1.2708,-1.2704,-1.2709,-1.271,-1.2706,-1.2704,-1.2697,-1.2697,-1.2697,-1.2697,0,-1.2871,-1.2854,-1.2851,-1.2832,-1.2827,-1.2829,-1.2813,-1.2812,-1.28,-1.2797,-1.2795,-1.2776,-1.277,-1.2754,-1.2744,-1.2736,-1.2739,-1.2733,-1.2743,-1.2741,-1.275,-1.2749,-1.2782,-1.2785,-1.2749,-1.2749,-1.2749,0,-1.2887,-1.2887,-1.2868,-1.2864,-1.2857,-1.2852,-1.2847,-1.2828,-1.2824,-1.281,-1.281,-1.2803,-1.2796,-1.2788,-1.2774,-1.2766,-1.276,-1.2772,-1.2758,-1.2763,-1.2759,-1.2759,-1.2759,-1.2774,-1.2775,-1.2775,-1.2776,0,-1.2917,-1.2908,-1.2901,-1.2892,-1.2886,-1.2878,-1.2869,-1.2867,-1.2846,-1.2842,-1.2836,-1.2831,-1.282,-1.2813,-1.2804,-1.2795,-1.2782,-1.278,-1.2781,-1.2786,-1.2791,-1.2788,-1.275,-1.2779,-1.2779,-1.2778,-1.2778,-1.2778,-1.2941,-1.294,-1.2927,-1.292,-1.2911,-1.2902,-1.29,-1.2888,-1.2882,-1.2872,-1.2862,-1.2856,-1.2844,-1.283,-1.2823,-1.2819,-1.2812,-1.2814,-1.2814,-1.2815,-1.2817,-1.2793,-1.2817,-1.2817,-1.2817,-1.2817,-1.2817,0,-1.297,-1.296,-1.2954,-1.2941,-1.2936,-1.2923,-1.2912,-1.2909,-1.2904,-1.2894,-1.2887,-1.288,-1.2874,-1.2859,-1.2851,-1.2851,-1.2844,-1.2849,-1.2849,-1.2847,-1.2824,-1.2823,-1.2854,-1.2854,-1.2854,-1.2854,-1.2854,-1.2854,-1.2984,-1.2982,-1.2972,-1.2966,-1.2957,-1.2951,-1.2946,-1.2938,-1.293,-1.2922,-1.2916,-1.2907,-1.2895,-1.2886,-1.2879,-1.2875,-1.2873,-1.288,-1.2874,-1.2852,-1.2849,-1.2845,-1.2845,-1.288,-1.288,-1.2897,-1.2898,-1.2898]},{"header":{"parameterUnit":"m.s-1","parameterCategory":1,"la1":30.2991,"la2":30.254,"lo1":-89.0895,"lo2":-89.0444,"dy":0.0017,"dx":0.0017,"nx":28,"ny":28,"refTime":"2023-10-17T03:00:00:Z","depth":0,"parameterNumber":3,"parameterNumberName":"V-component_of_WINDS"},"data":[0,0,0,0,0,0,0,0,0,0,0,0,0,0,0,0,0,0,0,0,0,0,0,0,0,0,0,0,0,0,0,0,0,0,0,0,0,0,0,0,0,0,0,0,0,0,0,0,0,0,0,0,0,0,0,0,0,0,3.013,3.013,0,3.0117,3.0117,3.0117,3.0087,3.0086,3.0086,3.0085,3.0072,3.0072,3.0072,0,0,0,0,0,0,0,0,0,0,0,0,0,3.0129,3.0129,3.013,3.013,3.013,3.0117,3.0117,3.0117,3.0087,3.0086,3.0086,3.0085,3.0072,3.0072,3.0072,0,0,0,0,0,0,0,0,0,0,0,0,0,3.0124,3.0129,3.013,3.0113,3.0112,3.0117,3.0117,3.0117,3.0087,3.0086,3.0085,3.0085,3.0072,3.0072,3.0072,3.0093,0,0,3.0074,3.0074,0,0,0,0,0,0,0,0,3.0124,3.0124,3.0116,3.0115,3.0113,3.0103,3.0112,3.0109,3.0088,3.0097,3.0085,3.0084,3.0083,3.0082,3.0082,3.0092,3.0092,3.0074,3.0074,3.0074,3.0074,0,0,0,0,0,0,0,3.0125,3.0125,3.0125,3.0116,3.0114,3.0107,3.0105,3.0111,3.0095,3.0096,3.0094,3.0092,3.0082,3.0082,3.0081,3.0092,3.0074,3.0074,3.0074,3.0074,3.0117,3.0118,0,0,0,0,0,0,3.0128,3.0125,3.0125,3.0125,3.0116,3.0107,3.0105,3.0107,3.0095,3.0092,3.0093,3.0091,3.0082,3.0081,3.0081,3.0103,3.0074,3.0074,3.0074,3.0116,3.0117,3.0118,0,0,0,0,0,0,3.0128,3.0128,3.0126,3.0124,3.0123,3.0108,3.011,3.0107,3.0107,3.0093,3.009,3.0096,3.0081,3.008,3.009,3.0102,3.0074,3.0075,3.0115,3.0117,3.0118,3.0148,0,0,0,0,0,0,3.0128,3.0128,3.0136,3.0125,3.0124,3.0135,3.0111,3.0108,3.0108,3.0105,3.0095,3.0092,3.008,3.009,3.009,3.0102,3.0075,3.0114,3.0116,3.0117,3.0146,3.015,3.0154,0,0,0,0,0,3.0128,3.0145,3.0136,3.0137,3.0133,3.0136,3.0136,3.0121,3.0109,3.0116,3.0107,3.0093,3.0101,3.0091,3.0091,3.0103,3.0113,3.0115,3.0117,3.0144,3.0149,3.0154,0,0,0,0,0,0,3.0158,3.0143,3.0133,3.0148,3.0143,3.0131,3.014,3.0128,3.0127,3.0124,3.0106,3.0104,3.0116,3.0111,3.01,3.0122,3.0105,3.0107,3.0125,3.013,3.0134,3.0134,3.0075,0,0,0,0,0,3.0166,3.017,3.0157,3.0171,3.0169,3.0155,3.0156,3.0145,3.014,3.0138,3.013,3.0126,3.0127,3.0128,3.0129,3.0146,3.0142,3.0154,3.0158,3.0162,3.0163,3.017,3.0175,3.0125,3.0125,3.0125,0,0,3.0184,3.0176,3.018,3.0177,3.0172,3.0176,3.0154,3.016,3.0162,3.0139,3.0147,3.0141,3.0135,3.0148,3.0153,3.0144,3.0177,3.0164,3.0167,3.0167,3.0173,3.0178,3.0182,3.0127,3.0127,3.0126,0,0,3.0217,3.0212,3.0222,3.0218,3.0211,3.0202,3.0204,3.0194,3.0189,3.0197,3.018,3.0183,3.0186,3.0182,3.018,3.0212,3.0198,3.0213,3.0234,3.0241,3.0245,3.0248,3.0258,3.0262,3.0215,3.0215,3.0215,0,3.0239,3.0244,3.0229,3.0235,3.0234,3.0214,3.0224,3.0221,3.0215,3.0214,3.0205,3.0208,3.0202,3.0213,3.0221,3.0221,3.0222,3.0213,3.0245,3.0249,3.0252,3.0261,3.0265,3.0217,3.0217,3.0216,3.0216,0,3.0271,3.0275,3.0284,3.0278,3.0279,3.0287,3.0273,3.0275,3.0265,3.0256,3.0264,3.0257,3.0255,3.0257,3.0247,3.0267,3.0261,3.0249,3.023,3.0258,3.0266,3.027,3.0219,3.0219,3.0218,3.0218,0,0,3.0321,3.0308,3.0311,3.0308,3.0299,3.0302,3.0309,3.0307,3.0309,3.0306,3.0311,3.0314,3.0302,3.0301,3.029,3.0296,3.032,3.0283,3.0283,3.0289,3.034,3.0348,3.0352,3.0312,3.0312,3.0313,3.034,0,3.0351,3.0362,3.0349,3.0363,3.0366,3.0347,3.0353,3.0348,3.0341,3.0342,3.0334,3.0336,3.0321,3.0319,3.0325,3.0316,3.033,3.0314,3.0315,3.0315,3.0316,3.0357,3.0366,3.0391,3.0343,3.0343,3.0344,0,3.0387,3.0385,3.0399,3.0389,3.039,3.0396,3.0392,3.0395,3.0389,3.0382,3.0381,3.0368,3.0374,3.0357,3.0365,3.0354,3.0354,3.035,3.035,3.0349,3.033,3.0355,3.0399,3.0402,3.0349,3.0349,3.0348,0,3.0421,3.0422,3.043,3.0428,3.0417,3.0421,3.0417,3.041,3.0409,3.0407,3.0406,3.0405,3.0404,3.0403,3.039,3.0379,3.0399,3.0381,3.0393,3.0393,3.0396,3.0396,3.044,3.0399,3.0399,3.0399,3.0399,0,3.0454,3.0463,3.0445,3.045,3.0459,3.0444,3.0454,3.0447,3.0441,3.0444,3.0429,3.0432,3.0415,3.0417,3.0407,3.0413,3.0414,3.0408,3.0405,3.0409,3.0409,3.0407,3.0404,3.04,3.04,3.04,3.0399,0,3.0493,3.0481,3.0488,3.0477,3.0474,3.0482,3.0472,3.0476,3.0467,3.0471,3.0472,3.0458,3.0459,3.0446,3.0445,3.0438,3.0449,3.0443,3.0451,3.0448,3.046,3.0458,3.0503,3.0507,3.0465,3.0466,3.0466,0,3.0514,3.052,3.051,3.0511,3.0507,3.0509,3.0508,3.0494,3.0494,3.0487,3.0492,3.0491,3.049,3.0492,3.0482,3.048,3.0474,3.0489,3.0473,3.0476,3.0472,3.0471,3.0471,3.0492,3.0493,3.0493,3.0494,0,3.0553,3.0546,3.0546,3.0544,3.0544,3.0542,3.0538,3.054,3.0524,3.0525,3.0525,3.0524,3.0522,3.0522,3.0518,3.0513,3.05,3.0499,3.0501,3.0504,3.0507,3.0504,3.0458,3.0498,3.0497,3.0497,3.0497,3.0497,3.0582,3.0586,3.0579,3.058,3.0576,3.0573,3.0575,3.0567,3.0568,3.0565,3.0556,3.0558,3.0552,3.0546,3.0542,3.0543,3.0535,3.0539,3.0539,3.054,3.0541,3.0509,3.0542,3.0542,3.0542,3.0542,3.0542,0,3.0619,3.0613,3.0614,3.0609,3.0609,3.0598,3.0593,3.0594,3.0596,3.0591,3.059,3.059,3.0589,3.0579,3.0577,3.058,3.0574,3.0579,3.0578,3.0577,3.0549,3.0547,3.0584,3.0584,3.0584,3.0584,3.0584,3.0584,3.0637,3.0644,3.0637,3.0641,3.0636,3.0637,3.0635,3.0632,3.0628,3.0629,3.0628,3.0622,3.0615,3.0612,3.061,3.0608,3.0607,3.0614,3.0609,3.0583,3.0579,3.0575,3.0573,3.0615,3.0615,3.0637,3.0637,3.0637]}]]